Flag for Denmark Weather past 2 weeks in Vejle, Denmark

Now
46 °F

Passing clouds.


Feels Like: 42 °F
Forecast: 43 / 54 °F
Wind: 8 mph from Northwest

Location: Billund Lufthavn

Current Time: May 25, 2015 at 8:01:21 AM

Latest Report: May 25, 2015 at 7:20 AM


Visibility: N/A

Pressure: 29.92 "Hg

Humidity: 93%

Dew point: 45 °F

Location of VejleLocation

Historic Weather in Vejle — Graph

°F

Vejle temperature yesterday

Maximum temperature yesterday: 54 °F (at 12:50 PM)
Minimum temperature yesterday: 43 °F (at 12:50 AM)
Average temperature yesterday: 49 °F

Past Weeks' High & Low Weather Summary

 TemperatureHumidityPressure
High68 °F (May 11, 3:20 PM)100% (May 10, 6:20 AM)30.27 "Hg (May 10, 6:20 AM)
Low37 °F (May 15, 4:20 AM)49% (May 11, 12:50 PM)29.45 "Hg (May 19, 12:20 AM)
Average49 °F78%29.97 "Hg
* Reported May 10 6:20 AM — May 25 6:50 AM, Vejle, Weather by CustomWeather, © 2015

Note: Actual official high and low records may vary slightly from our data, if they occured in-between our weather recording intervals... More about our weather records

Advertising

Vejle weather history for previous 24 hours

 ConditionsComfort  
Time TempWeatherWind HumidityBarometerVisibility
6:50 AM
Mon, May 25
46 °FPartly sunny.8 mph93%29.92 "HgN/A
6:20 AM46 °FBroken clouds.7 mph93%29.92 "HgN/A
5:50 AM46 °FPartly cloudy.6 mph93%29.92 "HgN/A
5:20 AM46 °FPartly cloudy.8 mph93%29.92 "HgN/A
4:50 AM46 °FMostly cloudy.6 mph100%29.92 "HgN/A
4:20 AM46 °FPassing clouds.7 mph100%29.92 "HgN/A
3:50 AM48 °FDrizzle. Fog.9 mph94%29.92 "Hg1 mi
3:20 AM48 °FDrizzle. Fog.9 mph100%29.89 "Hg2 mi
2:50 AM50 °FDrizzle. Fog.6 mph94%29.92 "Hg2 mi
2:20 AM50 °FLow clouds.7 mph94%29.92 "HgN/A
1:50 AM50 °FDrizzle. Fog.8 mph94%29.92 "Hg3 mi
1:20 AM50 °FDrizzle. Fog.7 mph94%29.92 "Hg2 mi
12:50 AM50 °FDrizzle. Fog.7 mph94%29.92 "Hg1 mi
12:20 AM50 °FLow clouds.7 mph88%29.95 "HgN/A
11:20 PM
Sun, May 24
48 °FPassing clouds.8 mph94%29.95 "HgN/A
10:50 PM48 °FPartly cloudy.8 mph94%29.95 "HgN/A
10:20 PM48 °FDrizzle. Partly sunny.8 mph87%29.98 "HgN/A
9:50 PM50 °FDrizzle. Partly sunny.8 mph82%29.98 "HgN/A
9:20 PM50 °FDrizzle. Overcast.7 mph76%29.98 "HgN/A
8:50 PM50 °FPartly sunny.7 mph76%29.98 "HgN/A
8:20 PM50 °FPartly sunny.9 mph71%30.01 "HgN/A
7:50 PM52 °FPartly sunny.12 mph72%30.01 "HgN/A
7:20 PM52 °FPartly sunny.12 mph67%30.01 "HgN/A
6:50 PM52 °FPartly sunny.13 mph67%30.01 "HgN/A
6:20 PM52 °FPartly sunny.13 mph67%30.01 "HgN/A
5:50 PM54 °FPartly sunny.14 mph63%30.01 "HgN/A
5:20 PM54 °FCool.13 mph63%30.04 "HgN/A
4:50 PM54 °FPassing clouds.12 mph58%30.04 "HgN/A
4:20 PM54 °FPassing clouds.14 mph63%30.04 "HgN/A
3:50 PM54 °FScattered clouds.14 mph63%30.04 "HgN/A
3:20 PM54 °FPassing clouds.13 mph58%30.07 "HgN/A
2:50 PM54 °FScattered clouds.12 mph63%30.07 "HgN/A
2:20 PM54 °FPartly sunny.14 mph58%30.07 "HgN/A
1:50 PM54 °FScattered clouds.10 mph63%30.07 "HgN/A
1:20 PM54 °FPassing clouds.13 mph58%30.07 "HgN/A
12:50 PM54 °FScattered clouds.12 mph58%30.07 "HgN/A
12:20 PM52 °FPartly sunny.13 mph62%30.09 "HgN/A
11:50 AM52 °FPartly sunny.10 mph62%30.09 "HgN/A
11:20 AM52 °FPartly sunny.12 mph62%30.09 "HgN/A
10:50 AM50 °FPartly sunny.9 mph67%30.09 "HgN/A
10:20 AM50 °FPartly sunny.9 mph67%30.09 "HgN/A
9:50 AM50 °FPartly sunny.9 mph67%30.09 "HgN/A
9:20 AM48 °FPartly sunny.10 mph66%30.09 "HgN/A
8:50 AM48 °FOvercast.10 mph71%30.09 "HgN/A
8:20 AM48 °FOvercast.9 mph66%30.09 "HgN/A
Weather by CustomWeather, © 2015

See weather overviewHow to use our weather pages